DELTA 1 DEB, 21270

Orbit data source: Space-Track

DELTA 1 DEB, 21270 is space debris in SSO originally from a launch on Thu, 12 Jun 1975 UTC launched from the Air Force Western Test Range (AFWTR). Debris objects in space refer to the collection of defunct objects orbiting the Earth. Examples of debris include non-operational satellites, rocket bodies, and fragments generated from explosions, collisions, or faulty payload assembly.

Loading next visibility...
Identifier
21270, 1975-052F
Orbit
SSO
Country
Flag of USUS
Related business
Manufacturer
Unknown
Mission
Spacecraft
Bus & Motor
Unknown
Mass
Unknown
Launch date (UTC)
1975-06-12 (50 years ago)
Launch vehicle
Unknown
Launch site
Air Force Western Test Range (AFWTR)
Object type
Payload
Rocket body
Debris
Shape & HBR
Unknown shape, 0.2 m
Radar Cross Section
Small (<0.1 m²)

Expand to show TLE details & history
Last TLE update: 10 hours ago

TLE from 10 hours ago
0 DELTA 1 DEB
1 21270U 75052F   25300.18452197  .00000684  00000-0  28266-2 0  9992
2 21270  99.4468  12.0560 0437847 354.9857  28.8221 12.60987846579805
Epoch: 2025-10-27T04:25Z
TLE epoch observation values (Epoch: 2025-10-27T04:25:42.698Z)
Latitude
25.9972°
Longitude
-94.79217°
Altitude
1,126.363 km
Speed
7.428 km/s
True Right ascension
00h 29m 42s
True Declination
25° 52' 07"
Sunlit
Object was in full shadow at epoch
Visualization orbit readout
Latitude
Unknown
Longitude
Unknown
Altitude
Unknown
Speed
Unknown
Apparent Right ascension
Unknown
Apparent Declination
Unknown
Sunlit
N/A
Visualization observer readout
Local Sidereal Time
10:06:38
Azimuth
Unknown
Elevation
Unknown
Doppler factor
Unknown
Orbital elements
Apogee altitude
1,757.547 km
Perigee altitude
1,074.996 km
Semi-major axis
7,794.409 km
Eccentricity
0.04378
Inclination
99.4468°
RAAN
12.056°
Arg. of periapsis
354.9857°
True anomaly
31.36165°
Mean anomaly
28.8221°
Eccentric anomaly
30.07945°
Mean motion
3.15405 °/min
Orbital period
114.14 mins
BSTAR
0.0028266
Loading maneuver chart data...
Computing Atmospheric mass density...
Loading historical data...
Loading historical data...
Loading historical data...
Loading historical data...
Loading historical data...
Loading historical data...
Loading historical data...

Documentation

Showing up to 5 results
|